N0YK Weather Reports


time (UTC)temp
C
wind
direction
speed
KPH
gust
KPH
rain 1hr
cm
rain 24hr
cm
rain mn
cm
humidity
%
barometer
mb
20260505041505 16 48 17.7 29.0 0.00 0.00 0.00 54 1001.7
20260505041004 16 52 19.3 30.6 0.00 0.00 0.00 55 1001.8
20260505040505 16 45 16.1 35.4 0.00 0.00 0.00 55 1001.8
20260505040005 16 40 20.9 35.4 0.00 0.00 0.00 55 1001.6
20260505035526 16 46 19.3 35.4 0.00 0.00 0.00 55 1001.5
20260505035026 16 44 20.9 38.6 0.00 0.00 0.00 54 1001.4
20260505034505 17 42 22.5 48.3 0.00 0.00 0.00 54 1001.4
20260505034026 17 54 19.3 48.3 0.00 0.00 0.00 53 1001.2
20260505033504 17 49 29.0 41.8 0.00 0.00 0.00 53 1001.0
20260505033005 17 48 19.3 46.7 0.00 0.00 0.00 53 1000.9
20260505032505 17 40 22.5 46.7 0.00 0.00 0.00 53 1000.8
20260505032005 17 48 17.7 35.4 0.00 0.00 0.00 53 1000.6
20260505031505 17 44 22.5 35.4 0.00 0.00 0.00 52 1000.4
20260505031005 18 46 19.3 33.8 0.00 0.00 0.00 51 1000.3
20260505030526 18 44 22.5 41.8 0.00 0.00 0.00 50 1000.3
20260505030004 18 51 25.7 41.8 0.00 0.00 0.00 49 1000.1
20260505025505 18 49 24.1 40.2 0.00 0.00 0.00 48 1000.0
20260505025026 19 46 24.1 38.6 0.00 0.00 0.00 47 999.7
20260505024505 19 48 24.1 37.0 0.00 0.00 0.00 46 999.8
20260505024005 19 48 24.1 37.0 0.00 0.00 0.00 45 999.8
20260505023505 20 55 19.3 32.2 0.00 0.00 0.00 45 999.5
20260505023005 20 50 19.3 37.0 0.00 0.00 0.00 44 999.4
20260505022526 20 43 20.9 41.8 0.00 0.00 0.00 43 999.5
20260505022005 20 42 19.3 41.8 0.00 0.00 0.00 42 999.3
20260505021504 21 36 14.5 29.0 0.00 0.00 0.00 39 998.9
20260505021005 22 49 19.3 29.0 0.00 0.00 0.00 37 998.6
20260505020504 22 47 16.1 25.7 0.00 0.00 0.00 33 998.6
20260505020005 23 54 6.4 11.3 0.00 0.00 0.00 31 998.1
20260505015505 23 60 6.4 11.3 0.00 0.00 0.00 31 998.0
20260505015026 23 57 4.8 11.3 0.00 0.00 0.00 30 998.0
20260505014505 23 93 4.8 9.7 0.00 0.00 0.00 30 998.0
20260505014004 23 75 3.2 8.0 0.00 0.00 0.00 30 997.9
20260505013505 23 63 3.2 8.0 0.00 0.00 0.00 30 997.8
20260505013005 23 54 3.2 8.0 0.00 0.00 0.00 30 997.7
20260505012504 23 110 3.2 11.3 0.00 0.00 0.00 30 997.8
20260505012005 24 86 4.8 11.3 0.00 0.00 0.00 30 997.5
20260505011526 24 89 4.8 11.3 0.00 0.00 0.00 29 997.5
20260505011005 24 84 4.8 11.3 0.00 0.00 0.00 29 997.5
20260505010504 24 76 4.8 11.3 0.00 0.00 0.00 29 997.3
20260505010005 25 82 3.2 11.3 0.00 0.00 0.00 28 997.2
20260505005505 25 62 3.2 14.5 0.00 0.00 0.00 28 997.2
20260505005005 25 57 4.8 14.5 0.00 0.00 0.00 29 997.2
20260505004526 25 94 4.8 11.3 0.00 0.00 0.00 29 997.3
20260505004004 25 102 3.2 9.7 0.00 0.00 0.00 29 997.3
20260505003505 25 157 4.8 11.3 0.00 0.00 0.00 28 997.4
20260505003004 25 93 3.2 11.3 0.00 0.00 0.00 28 997.3
20260505002505 25 110 3.2 12.9 0.00 0.00 0.00 28 997.5
20260505002004 26 100 6.4 12.9 0.00 0.00 0.00 28 997.4
20260505001505 26 98 4.8 14.5 0.00 0.00 0.00 28 997.5
20260505001005 26 95 4.8 14.5 0.00 0.00 0.00 28 997.5
20260505000504 26 86 4.8 16.1 0.00 0.00 0.00 28 997.6
20260505000005 26 110 6.4 16.1 0.00 0.00 0.00 27 997.6
20260504235504 26 104 6.4 11.3 0.00 0.00 0.00 27 997.6
20260504235005 27 99 4.8 17.7 0.00 0.00 0.00 26 997.7
20260504234526 27 88 6.4 17.7 0.00 0.00 0.00 26 997.7
20260504234004 27 93 3.2 6.4 0.00 0.00 0.00 24 997.8
20260504233505 27 66 3.2 8.0 0.00 0.00 0.00 23 997.9
20260504233004 27 244 3.2 8.0 0.00 0.00 0.00 24 997.9
20260504232505 27 201 4.8 8.0 0.00 0.00 0.00 24 997.9
20260504232004 27 211 0.0 3.2 0.00 0.00 0.00 22 997.9
20260504231505 27 206 0.0 3.2 0.00 0.00 0.00 22 997.9
20260504231004 27 208 0.0 6.4 0.00 0.00 0.00 23 997.9
20260504230505 27 213 1.6 8.0 0.00 0.00 0.00 23 997.8
20260504230025 27 258 4.8 9.7 0.00 0.00 0.00 22 997.9
20260504225505 27 257 6.4 9.7 0.00 0.00 0.00 22 998.0
20260504225004 27 275 3.2 12.9 0.00 0.00 0.00 24 998.0
20260504224505 27 267 8.0 12.9 0.00 0.00 0.00 22 998.1
20260504224005 27 216 1.6 14.5 0.00 0.00 0.00 23 998.1
20260504223505 27 248 8.0 17.7 0.00 0.00 0.00 22 998.0
20260504223005 27 261 4.8 20.9 0.00 0.00 0.00 24 998.1
20260504222505 27 308 12.9 25.7 0.00 0.00 0.00 24 997.9
20260504222005 27 266 14.5 25.7 0.00 0.00 0.00 23 998.1
20260504221505 27 270 11.3 27.4 0.00 0.00 0.00 23 998.1
20260504221005 26 316 4.8 27.4 0.00 0.00 0.00 22 998.1
20260504220504 26 267 4.8 29.0 0.00 0.00 0.00 22 998.1
20260504220026 26 279 19.3 29.0 0.00 0.00 0.00 22 998.3
20260504215504 26 256 11.3 29.0 0.00 0.00 0.00 22 998.4
20260504215005 26 259 11.3 17.7 0.00 0.00 0.00 22 998.5
20260504214504 26 349 1.6 14.5 0.00 0.00 0.00 22 998.4
20260504214005 26 221 6.4 16.1 0.00 0.00 0.00 24 998.8
20260504213505 26 167 8.0 22.5 0.00 0.00 0.00 22 998.8
20260504213004 26 157 8.0 25.7 0.00 0.00 0.00 25 998.8
20260504212505 26 138 12.9 29.0 0.00 0.00 0.00 26 998.4
20260504212005 26 146 8.0 40.2 0.00 0.00 0.00 25 998.5
20260504211505 26 129 11.3 40.2 0.00 0.00 0.00 25 998.5
20260504211005 27 132 9.7 16.1 0.00 0.00 0.00 24 998.6
20260504210504 27 118 6.4 27.4 0.00 0.00 0.00 22 998.6
20260504205504 27 142 11.3 29.0 0.00 0.00 0.00 22 998.4
20260504205026 27 144 4.8 9.7 0.00 0.00 0.00 23 998.4
20260504204505 28 240 1.6 4.8 0.00 0.00 0.00 20 998.5
20260504204005 28 245 0.0 9.7 0.00 0.00 0.00 19 998.6
20260504203504 28 245 1.6 12.9 0.00 0.00 0.00 20 998.5
20260504203005 28 301 6.4 27.4 0.00 0.00 0.00 18 998.6
20260504202504 28 249 16.1 27.4 0.00 0.00 0.00 19 998.7
20260504202005 28 292 4.8 19.3 0.00 0.00 0.00 20 998.7
20260504201547 28 307 9.7 19.3 0.00 0.00 0.00 20 998.8
20260504201005 28 306 11.3 16.1 0.00 0.00 0.00 21 998.8
20260504200505 28 241 8.0 14.5 0.00 0.00 0.00 20 999.0
20260504200005 27 245 6.4 14.5 0.00 0.00 0.00 21 999.0
20260504195504 27 276 6.4 16.1 0.00 0.00 0.00 22 999.2
20260504195005 27 231 8.0 16.1 0.00 0.00 0.00 21 999.3
20260504194505 27 171 4.8 12.9 0.00 0.00 0.00 24 999.1
20260504194005 27 89 3.2 12.9 0.00 0.00 0.00 25 999.3
20260504193505 27 28 3.2 9.7 0.00 0.00 0.00 24 999.3
20260504193004 27 81 6.4 12.9 0.00 0.00 0.00 24 999.3
20260504192504 27 82 6.4 14.5 0.00 0.00 0.00 24 999.3
20260504192004 27 50 6.4 20.9 0.00 0.00 0.00 23 999.5
20260504191505 27 57 4.8 20.9 0.00 0.00 0.00 25 999.4
20260504191004 27 50 14.5 20.9 0.00 0.00 0.00 24 999.3
20260504190526 27 37 11.3 16.1 0.00 0.00 0.00 24 999.2
20260504190005 27 46 11.3 17.7 0.00 0.00 0.00 24 999.3
20260504185546 27 32 8.0 20.9 0.00 0.00 0.00 24 999.4
20260504185005 27 44 11.3 25.7 0.00 0.00 0.00 24 999.5
20260504184504 27 43 12.9 25.7 0.00 0.00 0.00 24 999.6
20260504184005 27 47 12.9 19.3 0.00 0.00 0.00 24 999.5
20260504183504 27 33 8.0 16.1 0.00 0.00 0.00 24 999.6
20260504183005 27 31 4.8 16.1 0.00 0.00 0.00 23 999.6
20260504182504 27 38 8.0 17.7 0.00 0.00 0.00 22 999.7
20260504182005 27 67 6.4 19.3 0.00 0.00 0.00 21 999.8
20260504181525 27 46 12.9 19.3 0.00 0.00 0.00 22 999.8
20260504181005 28 42 9.7 20.9 0.00 0.00 0.00 22 999.9
20260504180504 28 15 9.7 20.9 0.00 0.00 0.00 23 1000.1
20260504180005 28 22 9.7 24.1 0.00 0.00 0.00 22 1000.1
20260504175525 28 49 14.5 24.1 0.00 0.00 0.00 23 1000.1
20260504175005 28 33 8.0 17.7 0.00 0.00 0.00 23 1000.3
20260504174504 28 319 11.3 17.7 0.00 0.00 0.00 25 1000.3
20260504174005 27 29 4.8 16.1 0.00 0.00 0.00 26 1000.4
20260504173505 27 53 4.8 16.1 0.00 0.00 0.00 27 1000.5
20260504173004 27 37 8.0 16.1 0.00 0.00 0.00 28 1000.5
20260504172526 27 31 11.3 17.7 0.00 0.00 0.00 29 1000.6
20260504172004 27 41 6.4 19.3 0.00 0.00 0.00 28 1000.7
20260504171505 27 40 9.7 19.3 0.00 0.00 0.00 28 1000.7
20260504171004 26 51 4.8 17.7 0.00 0.00 0.00 29 1000.8
20260504170505 26 35 11.3 19.3 0.00 0.00 0.00 29 1000.8
20260504151005 23 301 8.0 11.3 0.00 0.00 0.00 38 1001.2
20260504150505 23 309 8.0 11.3 0.00 0.00 0.00 40 1001.4
20260504140505 16 300 6.4 14.5 0.00 0.00 0.00 56 1001.9
20260504130505 10 328 6.4 11.3 0.00 0.00 0.00 71 1001.8
20260504110505 6 336 3.2 9.7 0.00 0.00 0.00 75 1001.3
20260504100504 7 331 3.2 9.7 0.00 0.00 0.00 73 1001.9
20260504082004 10 320 6.4 9.7 0.00 0.00 0.00 67 1002.1
20260504081504 10 323 8.0 9.7 0.00 0.00 0.00 67 1002.2
20260504081004 10 295 4.8 6.4 0.00 0.00 0.00 66 1002.2
20260504080504 10 293 1.6 6.4 0.00 0.00 0.00 66 1002.4
20260504050504 16 50 9.7 17.7 0.00 0.00 0.00 48 1003.3
20260504050004 16 62 8.0 17.7 0.00 0.00 0.00 47 1003.2
20260504045504 16 55 8.0 17.7 0.00 0.00 0.00 47 1003.2
20260504045004 16 60 9.7 20.9 0.00 0.00 0.00 47 1003.3
20260504044525 16 51 8.0 20.9 0.00 0.00 0.00 47 1003.3
20260504044005 16 57 9.7 19.3 0.00 0.00 0.00 47 1003.3
20260504043504 16 62 8.0 19.3 0.00 0.00 0.00 46 1003.5
20260504043005 16 65 9.7 20.9 0.00 0.00 0.00 46 1003.5